Volver al catálogo

STARLINK-5987

ActivoComunicacionesVLEO
NORAD 56455·PAYLOAD·🇺🇸 United States

Lanzado May 10, 2023 desde Vandenberg Space Force Base

Loading…

Próximos Pases (próximas 24 horas)

TLE

ActualizadoSource: CelesTrak SupGP

Época: Sep 14, 2026, 21:40 UTC

1 56455C 23064H   26257.90326389 -.00018048  00000+0 -15127-2 0  2579
2 56455  70.0030  27.3490 0002981 273.2467 286.9121 14.98336065    18

Sigue STARLINK-5987 en tiempo real con AllMySat

Download on the App Store